Temperature
9 9 9 9 8 8 8 8 8 8 8 8 8 8 8 8 8 8 8 8 8 8 8 8 8 8 8 7 7 7 7 7 7 7 7 7 8 8 8 8 8 8 8
9 9 9 9 9 8 8 8 8 8 8 8 8 8 8 8 8 8 7 7 8 8 8 8 8 8 7 7 7 7 7 7 7 7 7 7 7 7 7 7 7 7 7
9 9 9 9 9 8 8 8 8 8 8 8 8 8 8 8 8 7 7 7 8 8 8 8 8 8 7 7 7 7 7 7 7 7 6 6 6 6 6 6 6 7 7
9 9 9 9 9 8 8 8 8 8 8 8 8 8 8 8 8 7 7 7 7 7 8 8 7 7 7 7 7 7 7 7 6 6 6 6 6 6 6 6 6 6 6
9 9 9 9 8 8 8 8 8 8 8 8 8 8 8 8 8 8 7 7 7 7 7 7 7 7 7 7 6 6 6 6 6 5 5 5 5 5 5 5 5 5 5
9 9 9 9 9 8 8 8 8 8 8 8 8 8 8 8 8 8 7 7 7 7 7 6 6 6 6 6 6 6 6 6 5 5 5 4 4 4 4 4 4 4 4
9 9 9 9 9 9 8 8 8 8 8 8 8 8 8 8 8 7 7 7 6 6 6 6 5 6 6 6 6 6 6 5 5 4 4 4 4 4 3 4 4 4 4
10 9 9 9 9 9 9 8 8 8 8 7 7 7 7 7 7 7 7 7 6 6 6 5 5 5 5 5 5 5 5 5 5 4 4 3 3 3 3 3 3 3 3
10 10 9 9 9 9 9 8 8 8 8 7 7 7 7 6 7 7 6 6 6 6 5 5 5 5 5 5 5 5 5 4 4 3 3 3 3 3 2 2 2 2 2
10 10 9 9 9 9 9 8 8 8 8 7 7 7 6 6 6 6 6 6 5 5 5 5 5 5 5 4 4 4 4 4 4 3 3 2 2 2 2 2 2 2 2
10 10 9 9 9 9 9 8 8 8 8 7 7 7 6 6 5 5 5 6 6 5 5 5 5 5 4 4 4 4 3 3 3 3 3 2 2 1 1 1 1 1 1
10 10 9 9 9 9 9 9 8 8 8 7 7 7 6 6 5 4 4 4 5 5 5 5 5 4 3 3 3 3 3 3 2 2 2 1 1 1 0 0 0 0 0
10 10 10 9 9 9 9 9 8 8 8 7 7 7 6 6 5 4 4 4 4 4 5 5 4 3 3 2 2 2 2 1 1 1 1 0 0 -0 -0 -0 -1 -1 -1
11 10 10 9 9 9 9 9 8 8 8 7 7 6 6 5 5 4 4 3 3 3 3 4 3 3 2 1 1 1 1 0 0 -0 -1 -1 -1 -1 -1 -2 -2 -2 -2
10 10 10 9 9 9 9 8 8 8 7 7 6 6 6 5 5 4 4 3 2 1 2 3 3 2 1 1 1 0 0 -0 -1 -1 -1 -2 -2 -2 -3 -3 -3 -3 -3
10 10 10 9 9 9 9 8 8 7 7 7 6 6 5 5 4 4 3 3 2 1 0 2 2 1 1 1 0 -0 -0 -1 -1 -1 -1 -2 -3 -3 -3 -3 -3 -3 -3
10 10 10 10 9 9 9 8 8 7 7 6 6 5 5 5 4 4 3 3 2 1 0 1 1 1 0 -0 -0 -1 -1 -1 -2 -2 -2 -3 -3 -3 -4 -4 -4 -4 -4
10 10 10 10 9 9 8 8 7 7 7 6 6 5 5 4 4 3 3 2 2 1 -0 -0 0 -0 -1 -1 -1 -2 -2 -3 -3 -3 -3 -4 -4 -4 -4 -4 -4 -4 -4
10 10 9 9 9 9 8 8 7 7 6 6 5 5 4 4 3 3 2 2 1 1 -0 -1 -1 -1 -1 -2 -2 -3 -3 -3 -4 -4 -4 -4 -4 -4 -4 -4 -5 -5 -5
10 9 9 9 9 8 8 7 7 6 6 5 5 4 4 4 3 3 2 1 1 0 -0 -1 -1 -1 -2 -2 -3 -4 -4 -4 -4 -4 -5 -5 -5 -5 -5 -5 -5 -5 -5
9 9 9 9 8 8 7 7 6 6 5 5 4 4 4 3 3 2 1 1 0 -0 -1 -1 -2 -2 -3 -3 -4 -4 -5 -5 -5 -5 -5 -5 -5 -5 -5 -5 -5 -5 -5
9 9 9 8 8 8 7 6 6 6 5 5 4 4 3 3 2 2 1 0 -0 -1 -1 -2 -3 -3 -3 -4 -4 -5 -5 -6 -6 -5 -6 -6 -6 -6 -5 -6 -6 -6 -6
8 8 8 8 7 7 7 6 5 5 5 4 4 3 3 2 2 1 1 0 -1 -1 -2 -3 -3 -3 -4 -4 -5 -5 -5 -6 -6 -6 -6 -6 -6 -6 -6 -6 -6 -6 -6
8 8 8 7 7 7 6 5 5 4 4 4 3 3 2 2 1 0 -0 -1 -1 -1 -2 -3 -3 -4 -4 -5 -5 -6 -6 -6 -6 -6 -6 -7 -6 -7 -6 -6 -6 -6 -6
8 7 7 7 6 6 6 5 4 4 3 3 3 2 1 1 1 -0 -1 -1 -2 -2 -2 -3 -4 -4 -5 -5 -5 -6 -6 -6 -6 -6 -7 -7 -7 -7 -7 -6 -6 -6 -7
7 7 6 6 6 6 5 4 4 3 3 3 2 1 1 0 -0 -1 -1 -2 -2 -2 -3 -4 -4 -5 -5 -5 -6 -6 -7 -7 -7 -7 -7 -8 -8 -8 -8 -7 -7 -7 -7
Wind_Speed
6 7 6 7 7 6 5 4 4 3 2 2 3 4 4 6 6 4 1 3 1 3 7 8 8 9 9 9 10 10 11 12 12 13 13 14 14 14 14 14 14 15 15
8 6 4 5 5 4 3 3 3 1 1 2 3 5 5 6 6 6 3 1 2 1 4 6 7 8 8 9 10 11 11 12 13 13 14 14 15 15 15 15 15 16 16
10 8 5 4 5 5 3 2 3 1 2 2 3 4 4 5 5 5 3 2 4 3 2 4 6 8 9 10 11 12 12 13 13 14 14 15 15 16 16 16 17 17 17
13 9 5 4 7 6 4 2 1 1 2 2 2 3 3 4 4 3 3 2 4 5 3 1 4 6 8 10 11 12 13 13 14 15 15 16 16 17 17 18 18 18 19
14 10 6 6 7 5 3 2 1 1 1 2 3 3 3 2 1 2 1 4 4 3 2 1 2 5 7 10 12 13 13 14 15 16 16 17 17 18 18 18 19 19 20
14 11 7 7 7 4 3 2 2 1 0 1 3 4 4 3 0 1 1 3 3 2 0 1 3 4 7 11 12 12 13 15 15 16 17 18 18 19 19 20 20 21 21
14 11 6 6 6 4 4 3 2 1 0 1 2 4 4 1 2 2 1 1 0 2 1 3 3 5 6 9 11 12 14 15 16 17 18 18 19 19 20 20 21 21 22
14 11 7 6 5 4 4 3 3 2 0 1 1 2 4 4 3 0 0 0 1 1 2 4 5 6 7 7 9 11 13 15 17 18 19 19 20 21 21 22 22 22 23
14 12 10 7 6 5 4 4 4 3 2 1 2 2 1 1 3 3 2 1 1 2 3 5 6 7 8 7 6 9 12 15 18 19 20 20 21 21 22 22 23 23 24
13 13 11 9 6 5 5 4 4 3 3 2 1 1 2 2 1 3 4 3 3 3 3 3 5 7 8 6 7 9 12 16 18 20 21 21 22 22 23 23 24 24 24
11 12 11 9 7 5 6 6 5 4 3 3 2 1 0 1 1 2 4 5 4 4 3 3 4 6 7 6 7 10 13 17 19 20 21 22 22 23 24 24 25 25 25
7 9 10 9 7 6 6 6 5 5 3 3 2 2 2 2 2 2 3 4 5 4 5 4 3 5 6 6 8 12 15 18 20 21 22 22 23 24 25 25 25 26 26
7 9 8 7 7 7 8 7 5 5 4 4 3 2 2 2 2 2 2 4 4 4 4 3 4 4 5 6 9 12 15 19 21 22 23 23 24 24 25 25 26 27 27
8 10 9 8 9 9 8 7 5 5 4 5 4 3 2 2 2 2 3 2 4 4 4 5 3 2 5 8 10 13 14 18 21 23 24 24 24 25 25 26 27 27 28
9 11 10 9 9 9 8 7 5 5 5 5 4 4 3 3 2 3 3 3 3 4 5 4 3 3 8 11 14 14 13 18 22 24 24 24 24 25 26 27 27 28 28
11 13 12 11 10 9 9 7 6 6 6 5 4 5 4 3 3 3 3 4 4 5 6 4 4 6 10 13 17 16 16 22 23 24 25 25 26 26 27 28 28 28 28
13 13 13 12 11 10 9 8 7 7 7 5 5 5 6 5 4 4 4 4 5 5 9 8 5 6 7 7 11 14 16 16 17 23 25 26 27 27 28 28 28 28 29
13 13 13 12 11 11 10 9 9 8 7 7 6 6 6 5 5 5 4 5 6 6 7 11 7 6 7 7 7 8 12 15 16 21 24 26 27 27 28 28 29 29 29
12 12 12 12 11 11 10 9 8 8 7 7 7 6 6 6 6 5 5 6 5 6 6 8 9 6 6 6 8 8 9 10 15 19 22 24 25 27 28 29 30 30 29
13 12 12 11 11 10 10 9 8 7 7 6 6 7 7 7 7 7 6 7 6 6 6 7 9 8 7 7 7 8 9 6 8 14 18 21 24 26 27 28 30 29 29
12 12 11 10 10 9 9 9 8 8 7 6 6 7 7 9 11 9 7 6 6 6 6 7 9 8 8 7 7 7 10 8 8 8 8 10 13 12 17 24 26 27 28
11 11 11 11 10 9 12 14 10 7 7 7 7 7 7 9 12 15 16 15 12 8 7 7 8 10 11 9 8 8 9 10 8 4 6 9 8 9 10 15 23 27 27
11 10 10 10 10 10 14 15 13 8 7 7 7 6 7 7 10 7 12 15 15 18 17 11 10 11 11 9 9 10 9 10 11 7 8 11 8 9 10 17 25 26 25
11 10 10 10 9 10 15 15 13 8 6 7 8 7 7 7 8 8 7 8 8 9 12 9 9 11 10 9 9 11 11 11 9 7 6 9 8 8 11 12 22 23 22
9 9 9 10 9 10 14 14 12 6 6 7 7 7 7 8 13 14 8 8 8 8 14 18 20 19 22 23 19 10 8 9 12 7 4 5 6 8 8 8 13 18 21
8 8 8 8 9 8 13 14 12 6 6 6 6 7 11 12 14 15 8 7 9 9 8 10 12 15 14 16 20 11 7 9 10 7 3 3 5 6 6 5 5 10 15
Wind_Direction
168 168 178 176 188 185 183 210 241 253 265 286 298 304 311 312 311 314 248 205 209 334 337 337 340 342 343 344 346 348 347 343 340 339 338 336 334 331 326 321 317 315 311
170 167 175 171 177 176 200 224 247 257 309 321 311 308 305 312 323 328 314 176 160 68 4 359 359 359 357 356 353 350 347 344 340 337 333 331 330 328 324 321 318 315 313
176 173 172 169 176 185 209 246 287 295 287 287 292 301 313 310 311 319 357 79 123 131 74 22 6 0 357 351 346 344 342 339 335 333 330 328 326 324 321 319 317 315 311
182 175 169 172 178 181 195 202 242 266 288 302 317 319 314 304 307 348 354 54 101 121 128 66 360 349 346 343 341 339 337 334 331 329 327 325 322 320 317 315 313 312 310
180 174 173 177 178 175 181 200 213 178 326 334 321 305 300 306 326 347 17 93 89 89 130 199 303 317 332 337 336 336 335 334 332 330 327 324 321 319 316 314 313 311 308
179 175 173 178 176 164 176 189 203 174 127 359 328 307 285 263 206 90 103 123 150 186 273 324 317 320 326 329 332 334 335 335 333 331 328 326 322 320 317 315 313 310 308
177 173 169 174 166 165 175 179 159 134 76 45 358 321 306 263 141 135 127 74 178 204 239 294 331 348 340 333 334 332 334 334 333 332 329 326 324 321 319 316 314 311 308
173 175 173 167 161 163 170 166 144 134 126 98 88 8 347 347 347 310 117 321 319 358 347 343 350 341 334 335 334 334 332 331 331 330 328 326 324 321 319 317 315 313 310
174 175 176 165 161 162 167 165 152 148 158 136 109 122 101 301 324 317 290 285 337 359 346 338 341 339 332 333 336 331 326 327 327 327 325 324 323 320 318 317 315 313 312
173 173 173 168 162 158 159 161 148 145 140 153 110 121 164 162 132 315 319 332 350 332 314 328 338 326 321 330 331 323 322 324 324 324 324 323 322 320 319 317 316 314 311
169 170 170 164 159 156 155 148 142 144 147 159 159 159 158 51 182 202 282 307 318 302 307 309 305 304 306 316 318 315 319 321 321 321 321 321 320 319 318 317 315 313 311
169 168 166 163 161 155 153 149 149 153 155 153 151 154 160 177 217 211 253 286 295 290 296 276 266 273 284 297 304 309 314 317 317 316 316 316 316 316 315 314 313 312 310
171 171 162 163 159 154 151 149 152 160 162 161 169 180 178 190 191 196 243 279 294 296 292 280 254 259 281 296 297 302 308 312 312 313 313 313 312 312 311 311 311 310 309
172 166 163 163 159 154 153 152 154 165 163 167 179 178 181 205 192 193 207 246 299 298 289 282 301 275 304 303 298 301 302 308 310 311 311 310 309 309 310 310 309 309 307
166 163 164 162 158 157 157 156 164 169 168 175 180 186 192 206 201 207 205 192 213 276 289 280 297 311 319 310 308 307 306 310 311 312 311 310 309 309 310 309 309 308 306
162 162 165 163 161 161 161 161 166 170 172 180 180 187 204 208 207 208 211 217 210 225 263 267 275 293 306 308 308 314 314 311 311 310 309 309 309 310 309 308 307 306 305
161 165 167 167 166 166 166 167 173 173 180 186 187 197 213 209 210 218 220 225 229 228 260 275 269 284 294 296 307 309 309 306 306 309 308 308 309 309 308 308 308 306 305
164 166 167 168 170 169 170 173 178 178 184 192 198 202 216 215 218 225 228 234 239 237 252 277 284 284 285 290 294 296 304 304 303 305 306 307 307 308 308 309 309 308 307
164 165 166 169 171 171 173 176 178 180 188 195 199 205 215 215 230 235 236 240 247 256 254 271 284 284 286 291 296 294 291 292 298 303 304 304 305 306 307 308 309 308 307
165 168 169 169 170 171 173 174 175 180 189 198 204 208 213 217 228 234 242 245 250 260 265 272 282 287 285 286 288 295 296 285 292 300 299 301 303 305 306 307 307 306 306
167 166 164 166 168 171 176 174 176 183 191 203 212 216 221 227 235 241 245 240 240 253 263 271 279 286 288 293 289 289 295 296 286 282 285 291 298 296 298 300 303 303 304
163 163 168 170 173 181 182 184 183 187 194 204 219 226 231 237 246 255 261 262 257 256 260 265 276 280 283 284 289 291 295 300 297 272 287 294 293 291 293 296 301 305 307
164 167 172 173 178 181 184 191 195 192 198 211 220 228 240 242 251 244 259 266 268 269 269 269 270 274 280 283 286 288 285 286 289 289 296 297 293 290 295 303 307 309 310
170 174 177 178 178 186 189 197 200 200 205 216 222 225 233 241 241 247 242 247 250 257 265 270 264 268 272 275 273 279 284 286 281 278 283 293 297 294 301 301 303 307 312
174 176 176 177 181 188 193 197 200 198 214 226 228 229 235 241 257 264 259 256 261 261 271 275 276 279 284 290 292 290 289 293 297 294 271 273 293 304 296 290 297 310 318
173 172 178 182 183 188 196 199 201 198 216 229 233 235 245 252 262 268 260 255 265 267 266 273 277 283 286 287 291 285 277 285 292 294 272 286 297 314 303 280 293 312 313
Height
1546 1548 1549 1550 1551 1552 1552 1553 1553 1554 1554 1554 1554 1553 1553 1552 1552 1551 1549 1548 1547 1545 1544 1543 1542 1541 1541 1540 1539 1538 1537 1537 1536 1535 1534 1533 1532 1531 1530 1530 1529 1528 1527
1545 1546 1548 1549 1550 1551 1552 1552 1553 1553 1553 1553 1552 1552 1551 1551 1550 1549 1548 1546 1545 1544 1543 1541 1541 1540 1539 1538 1537 1536 1535 1534 1533 1532 1531 1530 1529 1528 1527 1526 1525 1524 1523
1543 1544 1546 1547 1548 1549 1550 1551 1551 1551 1551 1551 1551 1550 1549 1549 1548 1547 1546 1544 1543 1542 1541 1540 1539 1538 1537 1536 1535 1534 1533 1531 1530 1529 1527 1526 1525 1524 1523 1522 1521 1520 1519
1541 1542 1544 1545 1546 1547 1548 1549 1549 1550 1550 1549 1549 1548 1547 1546 1545 1544 1544 1543 1541 1540 1540 1539 1538 1537 1536 1534 1533 1531 1530 1528 1527 1525 1524 1523 1521 1520 1519 1518 1516 1515 1514
1538 1540 1542 1543 1544 1545 1546 1547 1548 1548 1548 1547 1546 1546 1545 1544 1543 1542 1542 1541 1540 1539 1538 1537 1536 1535 1533 1532 1530 1529 1527 1525 1524 1522 1520 1519 1517 1516 1514 1513 1512 1511 1509
1535 1537 1539 1541 1542 1543 1544 1545 1546 1546 1546 1545 1544 1543 1542 1542 1541 1540 1540 1539 1539 1538 1537 1536 1534 1533 1531 1529 1528 1526 1524 1522 1520 1518 1516 1515 1513 1512 1510 1508 1507 1505 1504
1532 1534 1536 1538 1540 1541 1542 1543 1543 1544 1543 1543 1542 1541 1540 1540 1539 1539 1539 1538 1538 1537 1535 1534 1532 1531 1529 1527 1525 1523 1521 1519 1517 1515 1513 1511 1509 1507 1505 1504 1502 1500 1499
1528 1531 1533 1535 1537 1538 1539 1540 1541 1541 1541 1541 1540 1539 1539 1539 1538 1538 1538 1537 1536 1535 1534 1532 1531 1528 1526 1524 1522 1520 1517 1515 1513 1511 1509 1506 1504 1502 1500 1498 1496 1494 1493
1525 1527 1530 1532 1534 1535 1536 1538 1538 1539 1539 1539 1538 1539 1538 1537 1537 1536 1536 1535 1534 1533 1532 1530 1528 1526 1523 1521 1519 1516 1514 1511 1509 1507 1504 1502 1499 1497 1495 1493 1491 1488 1486
1521 1524 1526 1529 1530 1532 1533 1534 1535 1536 1536 1536 1536 1536 1537 1536 1536 1534 1533 1532 1531 1530 1528 1526 1524 1522 1520 1518 1516 1513 1511 1508 1505 1502 1500 1497 1494 1492 1489 1487 1484 1482 1480
1516 1519 1522 1525 1527 1529 1530 1531 1532 1533 1533 1534 1534 1534 1534 1534 1533 1532 1529 1528 1527 1526 1524 1523 1521 1519 1516 1514 1512 1510 1507 1504 1501 1498 1495 1492 1489 1486 1483 1481 1478 1475 1473
1512 1515 1518 1521 1523 1525 1526 1528 1529 1530 1530 1531 1531 1531 1531 1531 1530 1529 1527 1524 1522 1521 1520 1518 1516 1514 1512 1510 1508 1506 1503 1500 1497 1494 1490 1487 1484 1480 1477 1475 1472 1469 1466
1506 1509 1513 1516 1519 1521 1523 1524 1525 1526 1527 1527 1528 1528 1527 1527 1527 1526 1524 1521 1519 1516 1514 1513 1512 1510 1508 1506 1503 1501 1498 1495 1492 1488 1485 1482 1478 1475 1472 1468 1465 1462 1459
1501 1505 1509 1512 1514 1517 1519 1520 1522 1522 1523 1524 1524 1524 1524 1524 1523 1522 1521 1519 1515 1512 1510 1509 1508 1506 1504 1502 1499 1496 1493 1490 1486 1483 1480 1476 1472 1469 1466 1462 1459 1456 1452
1497 1501 1504 1507 1510 1512 1514 1516 1517 1518 1519 1520 1520 1520 1520 1520 1519 1519 1517 1516 1514 1509 1505 1504 1503 1502 1500 1497 1494 1491 1488 1484 1481 1478 1474 1470 1467 1463 1460 1456 1452 1449 1445
1492 1496 1499 1503 1505 1508 1510 1512 1513 1514 1515 1515 1516 1516 1516 1515 1515 1514 1513 1512 1510 1507 1502 1498 1498 1497 1494 1492 1489 1486 1482 1479 1475 1472 1468 1465 1461 1457 1453 1450 1446 1442 1439
1487 1491 1495 1498 1501 1503 1505 1507 1508 1510 1510 1511 1511 1511 1511 1511 1510 1509 1508 1506 1505 1502 1497 1493 1493 1491 1488 1486 1483 1480 1476 1473 1469 1466 1462 1459 1455 1451 1447 1444 1440 1436 1432
1482 1486 1490 1493 1495 1498 1500 1502 1503 1505 1505 1506 1506 1506 1506 1506 1505 1504 1503 1501 1499 1497 1494 1488 1486 1485 1482 1480 1476 1473 1470 1466 1463 1459 1456 1453 1449 1445 1441 1437 1433 1429 1425
1477 1481 1484 1487 1490 1493 1495 1497 1498 1500 1500 1501 1501 1501 1501 1501 1500 1499 1497 1495 1493 1491 1489 1484 1480 1478 1476 1474 1470 1466 1463 1460 1457 1453 1450 1446 1443 1439 1435 1431 1427 1422 1418
1472 1475 1479 1482 1485 1488 1490 1492 1493 1494 1495 1496 1496 1496 1496 1495 1494 1493 1491 1489 1487 1485 1483 1479 1475 1471 1469 1467 1464 1459 1455 1452 1450 1447 1443 1440 1436 1432 1428 1424 1420 1415 1411
1467 1471 1474 1477 1480 1482 1484 1486 1488 1489 1490 1490 1490 1490 1490 1489 1488 1487 1485 1483 1481 1479 1476 1473 1469 1465 1462 1460 1457 1454 1449 1444 1441 1440 1435 1432 1429 1424 1421 1417 1412 1408 1404
1461 1465 1468 1471 1474 1477 1479 1481 1483 1483 1484 1484 1484 1484 1484 1483 1482 1481 1479 1478 1476 1473 1470 1467 1463 1460 1456 1454 1451 1448 1444 1438 1433 1432 1429 1424 1422 1417 1414 1410 1406 1402 1398
1456 1459 1463 1466 1469 1471 1474 1476 1477 1477 1478 1478 1478 1478 1477 1476 1475 1474 1472 1471 1469 1467 1465 1462 1457 1454 1451 1448 1445 1441 1438 1433 1429 1426 1423 1416 1414 1410 1407 1403 1400 1396 1392
1450 1454 1457 1460 1463 1466 1468 1470 1471 1471 1471 1471 1471 1471 1470 1469 1468 1467 1465 1462 1461 1459 1458 1455 1452 1448 1445 1442 1440 1436 1432 1427 1423 1421 1419 1412 1407 1403 1400 1396 1393 1390 1386
1445 1448 1452 1455 1457 1460 1462 1464 1465 1465 1464 1464 1465 1464 1464 1462 1462 1460 1458 1455 1453 1451 1450 1447 1445 1442 1439 1437 1434 1431 1426 1422 1416 1413 1412 1408 1402 1397 1393 1390 1387 1384 1381
1440 1444 1447 1449 1452 1454 1456 1458 1458 1458 1458 1458 1458 1457 1457 1456 1454 1453 1451 1448 1445 1443 1441 1438 1436 1434 1432 1429 1427 1425 1421 1417 1412 1408 1406 1403 1398 1394 1387 1383 1382 1379 1376